User: anonymous   Login
Location: �clusier
(49.9361°N, 2.7869°E)
Time: 00:27:23
(UTC+00:00)
Language:

Resurs 01 Rocket - Orbit

View from above orbital plane
View from above orbital plane
View from above satellite
View from above satellite

Ground track
Ground track

The orbit data is extracted from the following two-line orbital elements,

1 23343U 94074B   21263.14161479  .00000032  00000-0  11717-4 0  9992
2 23343  97.9367 316.2823 0008252 106.3829 311.9427 14.76900753446260
Epoch (UTC): 20 September 2021 03:23:55
Eccentricity: 0.0008252
inclination: 97.9367°
perigee height: 633 km
apogee height: 645 km
right ascension of ascending node: 316.2823°
argument of perigee: 106.3829°
revolutions per day: 14.76900753
mean anomaly at epoch: 311.9427°
orbit number at epoch: 44626

The dashed part of the orbit path shows where the satellite is in the earth's shadow,  

DLR